FW8328 Weather Reports


Display with metric or nautical units.
time (UTC)temp
F
wind
direction
speed
MPH
gust
MPH
rain 1hr
in
rain 24hr
in
rain mn
in
humidity
%
barometer
mb
20260507134546 47 242 1.0 4.0 0.00 0.51 0.01 79 1008.2
20260507133045 46 163 0.0 5.0 0.00 0.51 0.01 84 1008.3
20260507131552 45 248 1.0 4.0 0.00 0.51 0.01 90 1008.5
20260507130046 44 247 1.0 3.0 0.00 0.51 0.01 94 1008.4
20260507124546 45 0 0.0 2.0 0.00 0.51 0.01 96 1008.5
20260507123102 45 0 0.0 3.0 0.00 0.51 0.01 96 1008.3
20260507121545 45 0 0.0 3.0 0.00 0.51 0.01 96 1008.3
20260507120045 44 0 0.0 2.0 0.00 0.51 0.01 95 1008.1
20260507114543 44 0 0.0 2.0 0.00 0.51 0.01 96 1008.1
20260507113047 43 0 0.0 2.0 0.00 0.51 0.01 96 1008.1
20260507111546 42 5 0.0 1.0 0.00 0.51 0.01 96 1008.1
20260507110049 40 348 0.0 2.0 0.00 0.51 0.01 95 1008.1
20260507104543 40 297 0.0 3.0 0.00 0.51 0.01 95 1008.3
20260507103040 40 0 0.0 0.0 0.00 0.51 0.01 94 1008.2
20260507101547 40 0 0.0 0.0 0.00 0.51 0.01 94 1007.9
20260507100056 40 0 0.0 0.0 0.00 0.51 0.01 94 1007.9
20260507094547 41 0 0.0 0.0 0.01 0.51 0.01 94 1008.0
20260507093046 41 0 0.0 0.0 0.01 0.51 0.01 94 1008.0
20260507091542 41 0 0.0 0.0 0.01 0.51 0.01 94 1008.1
20260507090056 41 0 0.0 0.0 0.01 0.51 0.01 94 1008.1
20260507084552 42 0 0.0 0.0 0.00 0.50 0.00 94 1008.1
20260507083045 42 0 0.0 0.0 0.00 0.50 0.00 94 1008.0
20260507081554 42 0 0.0 0.0 0.00 0.50 0.00 94 1008.0
20260507080042 43 0 0.0 0.0 0.00 0.50 0.00 94 1008.1
20260507074546 43 0 0.0 0.0 0.00 0.50 0.00 94 1008.1
20260507073048 43 0 0.0 2.0 0.00 0.50 0.00 94 1007.9
20260507071545 43 0 0.0 2.0 0.00 0.50 0.00 94 1007.6
20260507070046 43 0 0.0 2.0 0.00 0.50 0.00 94 1007.5
20260507064617 44 111 0.0 2.0 0.00 0.50 0.00 94 1007.7
20260507063049 44 111 0.0 2.0 0.00 0.50 0.00 94 1007.7
20260507061546 44 111 0.0 2.0 0.00 0.50 0.00 94 1008.0
20260507060108 44 111 1.0 3.0 0.00 0.50 0.00 94 1007.6
20260507054551 44 0 0.0 0.0 0.00 0.50 0.00 93 1008.1
20260507053045 44 0 0.0 0.0 0.00 0.50 0.00 93 1008.2
20260507051559 44 0 0.0 0.0 0.00 0.50 0.00 93 1007.9
20260507050048 45 0 0.0 2.0 0.00 0.50 0.00 93 1008.1
20260507044550 45 0 0.0 0.0 0.00 0.50 0.00 93 1007.7
20260507043045 45 0 0.0 0.0 0.00 0.50 0.00 93 1007.8
20260507041545 46 0 0.0 3.0 0.00 0.50 0.00 93 1007.6
20260507040046 46 0 0.0 1.0 0.00 0.50 0.00 93 1007.6
20260507034546 46 72 1.0 3.0 0.01 0.50 0.50 93 1007.5
20260507033047 46 86 0.0 3.0 0.01 0.50 0.50 93 1007.9
20260507031545 47 0 0.0 3.0 0.02 0.50 0.50 93 1007.8
20260507030049 47 0 1.0 3.0 0.02 0.50 0.50 92 1007.8
20260507024547 47 107 0.0 3.0 0.02 0.49 0.49 93 1008.0
20260507023045 47 69 0.0 4.0 0.03 0.49 0.49 92 1008.1
20260507021545 48 58 1.0 4.0 0.04 0.48 0.48 92 1008.1
20260507020101 48 101 0.0 3.0 0.06 0.48 0.48 92 1007.9
20260507014549 48 0 0.0 1.0 0.07 0.47 0.47 91 1007.8
20260507013045 49 0 0.0 1.0 0.09 0.46 0.46 91 1007.9
20260507011546 49 0 0.0 2.0 0.07 0.44 0.44 90 1007.8
20260507010058 50 0 0.0 2.0 0.05 0.42 0.42 90 1007.5
20260507004542 51 0 0.0 3.0 0.03 0.40 0.40 90 1007.3
20260507003045 52 0 0.0 3.0 0.01 0.37 0.37 90 1007.1
20260507001551 52 0 0.0 3.0 0.02 0.37 0.37 90 1006.7
20260507000048 53 0 0.0 1.0 0.04 0.37 0.37 90 1006.0
20260506234547 54 0 0.0 0.0 0.05 0.37 0.37 90 1005.7
20260506233046 55 94 0.0 1.0 0.06 0.36 0.36 89 1005.8
20260506231602 56 94 0.0 1.0 0.05 0.35 0.35 90 1005.5
20260506230109 57 94 0.0 3.0 0.03 0.33 0.33 90 1005.3
20260506224546 58 0 0.0 2.0 0.01 0.32 0.31 91 1005.0
20260506223045 59 0 0.0 3.0 0.00 0.31 0.30 92 1004.9
20260506221555 60 92 0.0 4.0 0.02 0.31 0.30 93 1004.6
20260506220100 60 0 0.0 2.0 0.11 0.31 0.30 94 1004.5
20260506214550 60 0 0.0 2.0 0.11 0.39 0.30 94 1004.3
20260506213103 60 360 0.0 3.0 0.11 0.39 0.30 94 1004.0
20260506211543 60 0 0.0 2.0 0.10 0.37 0.28 94 1004.1
20260506210054 60 355 0.0 2.0 0.01 0.28 0.19 94 1004.3
20260506204543 60 334 2.0 8.0 0.01 0.31 0.19 94 1004.3
20260506203039 60 0 0.0 4.0 0.02 0.31 0.19 94 1004.3
20260506201548 60 0 0.0 6.0 0.02 0.30 0.18 94 1004.4
20260506200043 60 0 1.0 9.0 0.04 0.30 0.18 94 1004.6
20260506194543 60 63 1.0 10.0 0.06 0.30 0.18 94 1004.6
20260506193044 60 138 1.0 5.0 0.06 0.29 0.17 94 1004.8
20260506191550 59 319 1.0 4.0 0.07 0.28 0.16 94 1005.1
20260506190045 59 0 2.0 4.0 0.07 0.26 0.14 94 1005.2
20260506184556 59 0 1.0 8.0 0.06 0.24 0.12 93 1005.4
20260506183045 59 98 2.0 8.0 0.07 0.23 0.11 93 1005.3
20260506181545 59 328 3.0 9.0 0.06 0.21 0.09 93 1005.6
20260506180041 59 15 3.0 13.0 0.06 0.19 0.07 93 1005.7
20260506174543 60 65 2.0 9.0 0.05 0.18 0.06 93 1005.9
20260506173050 60 134 1.0 4.0 0.04 0.16 0.04 92 1006.1
20260506171559 60 0 0.0 4.0 0.03 0.15 0.03 91 1006.2
20260506170057 60 296 0.0 3.0 0.01 0.13 0.01 91 1006.1
20260506164548 60 281 1.0 5.0 0.01 0.13 0.01 90 1006.5
20260506163043 60 258 2.0 5.0 0.00 0.12 0.00 89 1006.6
20260506161547 60 0 0.0 3.0 0.00 0.12 0.00 90 1006.5
20260506160059 60 0 0.0 2.0 0.00 0.12 0.00 90 1007.0
20260506154554 59 79 0.0 4.0 0.00 0.12 0.00 90 1007.4
20260506153048 58 0 0.0 2.0 0.00 0.12 0.00 91 1007.8
20260506151545 58 0 0.0 0.0 0.00 0.12 0.00 88 1008.0
20260506150053 59 0 0.0 0.0 0.00 0.12 0.00 89 1007.7
20260506144558 59 0 0.0 0.0 0.00 0.12 0.00 88 1007.7
20260506143044 59 0 0.0 0.0 0.00 0.12 0.00 88 1007.7
20260506141545 58 0 0.0 1.0 0.00 0.12 0.00 89 1007.8
20260506140045 57 0 1.0 4.0 0.00 0.12 0.00 89 1007.9